This demonstration page uses our WeatherBlox Daily Observations layout. Learn more.

Left ArrowRight Arrow

Hourly Observations for January 24, 2022

Temp ( °F °C ) Dew Point ( °F °C ) Humidity (%) Winds ( mph kmh ) Pressure ( in mb ) Visibility ( mi km ) Precip ( " mm )
12:53 am 00:53 Clear 41 5 34 1.1 76 76 Calm 30.20 1023 10 16 0.00 0.00
1:53 am 01:53 Clear 39 3.9 33 0.6 79 79 Calm 30.19 1023 10 16 0.00 0.00
2:53 am 02:53 Clear 38 3.3 32 0 79 79 Calm 30.19 1022 10 16 0.00 0.00
3:53 am 03:53 Clear 36 2.2 31 -0.6 82 82 Calm 30.18 1022 10 16 0.00 0.00
4:53 am 04:53 Clear 35 1.7 32 0 89 89 Calm 30.17 1022 10 16 0.00 0.00
5:53 am 05:53 Clear 34 1.1 30 -1.1 85 85 Calm 30.18 1022 10 16 0.00 0.00
6:53 am 06:53 Clear 33 0.6 29 -1.7 85 85 NNE 3 6 30.18 1022 10 16 0.00 0.00
7:53 am 07:53 Sunny 34 1.1 29 -1.7 82 82 Calm 30.19 1022 10 16 0.00 0.00
8:53 am 08:53 Sunny 40 4.4 33 0.6 77 77 Calm 30.19 1022 10 16 0.00 0.00
9:53 am 09:53 Sunny 47 8.3 36 2.2 66 66 Calm 30.19 1022 10 16 0.00 0.00
10:53 am 10:53 Sunny 52 11.1 36 2.2 55 55 Calm 30.18 1022 10 16 0.00 0.00
11:53 am 11:53 Sunny 57 13.9 36 2.2 45 45 ESE 3 6 30.15 1021 10 16 0.00 0.00
12:53 pm 12:53 Sunny 60 15.6 36 2.2 41 41 Calm 30.11 1020 10 16 0.00 0.00
1:53 pm 13:53 Sunny 62 16.7 36 2.2 38 38 Calm 30.09 1019 10 16 0.00 0.00
2:53 pm 14:53 Sunny 63 17.2 35 1.7 35 35 Calm 30.07 1018 10 16 0.00 0.00
3:53 pm 15:53 Sunny 62 16.7 35 1.7 37 37 SSE 3 6 30.05 1018 10 16 0.00 0.00
4:53 pm 16:53 Sunny 59 15 39 3.9 48 48 Calm 30.05 1018 10 16 0.00 0.00
5:53 pm 17:53 Clear 53 11.7 39 3.9 59 59 Calm 30.06 1018 10 16 0.00 0.00
6:53 pm 18:53 Clear 49 9.4 38 3.3 66 66 Calm 30.06 1018 10 16 0.00 0.00
7:53 pm 19:53 Clear 46 7.8 37 2.8 71 71 Calm 30.06 1018 10 16 0.00 0.00
8:53 pm 20:53 Clear 43 6.1 35 1.7 74 74 Calm 30.07 1018 10 16 0.00 0.00
9:53 pm 21:53 Clear 41 5 34 1.1 76 76 Calm 30.06 1018 7 11 0.00 0.00
10:53 pm 22:53 Clear 40 4.4 34 1.1 79 79 Calm 30.07 1018 8 13 0.00 0.00
11:53 pm 23:53 Clear 38 3.3 33 0.6 83 83 Calm 30.08 1019 9 14 0.00 0.00

Powered by AerisWeather